Location: Spruce Knob
(38.6995°N, 79.5330°W)
Time: 16:15:55
(UTC-05:00)

Explorer 7 - All Passes

Search period start: 25 January 2022 00:00
Search period end: 04 February 2022 00:00
Orbit: 483 x 674 km, 50.3° (Epoch: 24 January)

Date Brightness Start Highest point End Pass type
(mag) Time Alt. Az. Time Alt. Az. Time Alt. Az.
25 Jan - 09:01:36 10° SSW 09:05:18 40° SE 09:09:14 10° ENE daylight
25 Jan - 10:42:00 10° W 10:45:49 36° NNW 10:49:51 10° NE daylight
25 Jan - 12:24:13 10° NW 12:27:17 18° N 12:30:28 10° NE daylight
25 Jan - 14:05:21 10° NW 14:08:59 23° NNE 14:12:46 10° ENE daylight
25 Jan - 15:45:30 10° NW 15:50:08 69° NE 15:54:56 10° ESE daylight
25 Jan - 17:26:40 10° W 17:30:22 23° SW 17:34:08 10° S daylight
26 Jan - 09:05:09 10° SW 09:09:04 68° SE 09:13:15 10° ENE daylight
26 Jan - 10:46:18 10° W 10:49:51 27° NNW 10:53:37 10° NE daylight
26 Jan - 12:28:28 10° NW 12:31:28 18° N 12:34:35 10° NE daylight
26 Jan - 14:09:10 10° NW 14:13:06 28° NNE 14:17:10 10° E daylight
26 Jan - 15:49:21 10° NW 15:54:00 81° SW 15:58:49 10° SE daylight
26 Jan - 17:31:35 10° W 17:33:59 14° SW 17:36:26 10° SSW daylight
27 Jan - 07:30:44 10° SSE 07:32:59 15° SE 07:35:18 10° E daylight
27 Jan - 09:08:58 10° WSW 09:12:54 74° NW 09:17:07 10° NE daylight
27 Jan - 10:50:41 10° WNW 10:53:58 22° NNW 10:57:25 10° NE daylight
27 Jan - 12:32:36 10° NW 12:35:40 18° N 12:38:50 10° NE daylight
27 Jan - 14:12:57 10° NW 14:17:08 36° NNE 14:21:30 10° E daylight
27 Jan - 15:53:17 10° WNW 15:57:47 52° SW 16:02:27 10° SSE daylight
28 Jan - 07:33:24 10° S 07:36:36 25° SE 07:39:57 10° ENE daylight
28 Jan - 09:12:59 10° WSW 09:16:50 48° NNW 09:20:54 10° NE daylight
28 Jan - 10:55:05 10° WNW 10:58:06 19° N 11:01:16 10° NE daylight
28 Jan - 12:36:34 10° NW 12:39:49 20° NNE 12:43:13 10° ENE daylight
28 Jan - 14:16:43 10° NW 14:21:06 50° NNE 14:25:43 10° ESE daylight
28 Jan - 15:57:23 10° WNW 16:01:32 32° SW 16:05:48 10° SSE daylight
29 Jan - 07:36:39 10° SSW 07:40:18 43° SE 07:44:09 10° ENE daylight
29 Jan - 09:17:11 10° W 09:20:49 33° NNW 09:24:40 10° NE daylight
29 Jan - 10:59:26 10° NW 11:02:17 17° N 11:05:15 10° NE daylight
29 Jan - 12:40:26 10° NW 12:43:57 23° NNE 12:47:38 10° ENE daylight
29 Jan - 14:20:30 10° NW 14:25:00 73° NE 14:29:45 10° ESE daylight
29 Jan - 16:01:47 10° W 16:05:12 20° SW 16:08:43 10° S daylight
30 Jan - 07:40:14 10° SW 07:44:04 74° SE 07:48:07 10° ENE daylight
30 Jan - 09:21:30 10° WNW 09:24:52 25° NNW 09:28:24 10° NE daylight
30 Jan - 11:03:40 10° NW 11:06:28 17° N 11:09:23 10° NE daylight
30 Jan - 12:44:12 10° NW 12:48:02 28° NNE 12:52:01 10° E daylight
30 Jan - 14:24:21 10° WNW 14:28:51 75° SW 14:33:35 10° SE daylight
30 Jan - 16:06:56 10° WSW 16:08:49 12° SW 16:10:45 10° SSW daylight
31 Jan - 06:05:35 10° SSE 06:07:57 16° SE 06:10:21 10° E visible
31 Jan - 07:44:05 10° WSW 07:47:54 68° NW 07:51:58 10° NE daylight
31 Jan - 09:25:54 10° WNW 09:28:58 21° NNW 09:32:11 10° NE daylight
31 Jan - 11:07:44 10° NW 11:10:39 18° N 11:13:40 10° NE daylight
31 Jan - 12:47:58 10° NW 12:52:03 37° NNE 12:56:20 10° E daylight
31 Jan - 14:28:18 10° WNW 14:32:38 47° SW 14:37:11 10° SSE daylight
01 Feb - 06:08:21 10° SSW 06:11:34 27° SE 06:14:55 10° ENE visible
01 Feb - 07:48:08 10° WSW 07:51:50 43° NNW 07:55:44 10° NE daylight
01 Feb - 09:30:18 10° NW 09:33:07 18° N 09:36:03 10° NE daylight
01 Feb - 11:11:40 10° NW 11:14:48 20° NNE 11:18:03 10° ENE daylight
01 Feb - 12:51:44 10° NW 12:56:00 52° NNE 13:00:31 10° ESE daylight
01 Feb - 14:32:27 10° WNW 14:36:22 29° SW 14:40:26 10° SSE daylight
02 Feb - 06:11:39 10° SSW 06:15:16 46° SE 06:19:03 10° ENE visible
02 Feb - 07:52:21 10° W 07:55:50 31° NNW 07:59:28 10° NE daylight
02 Feb - 09:34:39 10° NW 09:37:17 16° N 09:40:01 10° NE daylight
02 Feb - 11:15:30 10° NW 11:18:54 23° NNE 11:22:28 10° ENE daylight
02 Feb - 12:55:31 10° NW 12:59:53 78° NE 13:04:31 10° ESE daylight
02 Feb - 14:36:56 10° W 14:40:02 18° SW 14:43:14 10° S daylight
03 Feb - 06:15:17 10° SW 06:19:03 81° SE 06:22:59 10° NE visible
03 Feb - 07:56:41 10° WNW 07:59:52 23° NNW 08:03:12 10° NE daylight
03 Feb - 09:38:50 10° NW 09:41:28 16° N 09:44:10 10° NE daylight
03 Feb - 11:19:15 10° NW 11:22:58 29° NNE 11:26:51 10° E daylight
03 Feb - 12:59:22 10° WNW 13:03:43 69° SW 13:08:18 10° SE daylight
03 Feb - 14:42:36 10° WSW 14:43:39 11° SW 14:44:43 10° SW daylight
